Skip Page Navigation
NASA JPL Caltech
NASA Logo - Jet Propulsion Laboratory + View the NASA Portal
+ Center for Near-Earth Object Studies
JPL Home Earth Solar System Stars & Galaxies Technology
JPL Solar System Dynamics
BODIES ORBITS EPHEMERIDES TOOLS PHYSICAL DATA DISCOVERY FAQ SITE MAP
IMPORTANT: The SSD Announcement email list is now available. Major changes are coming in the near future, including possible hostname and/or URL changes. To be notified of such changes, subscribe to this email list.

Please visit this page for more details.


JPL Small-Body Database Browser
Search: [ help ]  
136010 (2002 VJ63)
Classification: Main-belt Asteroid          SPK-ID: 2136010
Ephemeris | Orbit Diagram | Orbital Elements | Mission Design | Physical Parameters | Discovery Circumstances | Close-Approach Data ]

[ show orbit diagram ]
Orbital Elements at Epoch 2458600.5 (2019-Apr-27.0) TDB
Reference: JPL 22 (heliocentric ecliptic J2000)
 Element Value Uncertainty (1-sigma)   Units 
e .1436287893676812 7.3086e-08  
a 2.577562754595419 1.8582e-08 au
q 2.207350536633653 1.9836e-07 au
i 5.244156766479874 6.5734e-06 deg
node 351.6142143228044 3.9077e-05 deg
peri 340.4399615910239 4.3778e-05 deg
M 58.18841364625495 1.6075e-05 deg
tp 2458356.187147151436
(2018-Aug-25.68714715)
6.8296e-05 TDB
period 1511.514432412162
4.14
1.6345e-05
4.475e-08
d
yr
n .2381717251786285 2.5756e-09 deg/d
Q 2.947774972557185 2.1251e-08 au
  Orbit Determination Parameters
   # obs. used (total)      719  
   data-arc span      8619 days (23.60 yr)  
   first obs. used      1996-03-20  
   last obs. used      2019-10-25  
   planetary ephem.      DE431  
   SB-pert. ephem.      SB431-N16  
   condition code      0  
   norm. resid. RMS      .54348  
   source      ORB  
   producer      Otto Matic  
   solution date      2019-Nov-07 16:00:22  

Additional Information
 Earth MOID = 1.19697 au 
 Jupiter MOID = 2.40306 au 
 T_jup = 3.406 
[ show covariance matrix ]

Ephemeris | Orbit Diagram | Orbital Elements | Mission Design | Physical Parameters | Discovery Circumstances | Close-Approach Data ]

Physical Parameter Table
Parameter Symbol Value Units Sigma Reference Notes
absolute magnitude H 15.5   n/a MPO449764  
diameter diameter 2.007 km 0.511 urn:nasa:pds:neowise_diameters_albedos::2.0[mainbelt] (http://adsabs.harvard.edu/abs/2011ApJ...741...68M)  
geometric albedo albedo 0.333   0.268 urn:nasa:pds:neowise_diameters_albedos::2.0[mainbelt] (http://adsabs.harvard.edu/abs/2011ApJ...741...68M)  

136010 (2002 VJ63)          Discovered 2002-Nov-06 by LONEOS at Anderson Mesa
Reference: 20060907/Numbers.arcLast Updated: 2006-09-10

[ show close-approach data ]
Alternate Designations
 2002 VJ63 = 2000 EP159 
Ephemeris | Orbit Diagram | Orbital Elements | Mission Design | Physical Parameters | Discovery Circumstances | Close-Approach Data ]
ABOUT SSD CREDITS/AWARDS PRIVACY/COPYRIGHT GLOSSARY LINKS
FirstGov
(server date/time)  
NASA Home Page
Site Manager:   Ryan S. Park
Webmaster  Alan B. Chamberlin